When you browse on this site, cookies collect data to enhance your experience and personalize the content and advertising you see.
Visit our Privacy Policy to learn more. By continuing to use the site, you agree to this use of cookies and data.
  • en France
  • Liste des pays
  • À 7 jours
  • Température de l'eau
  • Carte météo
  • Widgets météo
  • user-avatar
    Se connecter

    Météo par heure à Strasbourg

    Ce jour, 17 Septembre, Mardi

    Heure Température Précipitation Vent Pression Humidité
    00:00 +18°C° 0 mm 1 m/s 752 mmHg 63%
    01:00 +18°C° 0 mm 1 m/s 751 mmHg 70%
    02:00 +18°C° 0 mm 1 m/s 751 mmHg 73%
    03:00 +16°C° 0 mm 1 m/s 751 mmHg 77%
    04:00 +16°C° 0 mm 1 m/s 751 mmHg 80%
    05:00 +16°C° 0 mm 1 m/s 751 mmHg 81%
    06:00 +18°C° 0 mm 1 m/s 751 mmHg 82%
    07:00 +18°C° 0 mm 1 m/s 751 mmHg 83%
    08:00 +19°C° 0 mm 1 m/s 752 mmHg 79%
    09:00 +20°C° 0 mm 1 m/s 752 mmHg 75%
    10:00 +20°C° 0 mm 2 m/s 752 mmHg 71%
    11:00 +20°C° 0 mm 2 m/s 752 mmHg 69%
    12:00 +21°C° 0 mm 2 m/s 751 mmHg 67%
    13:00 +21°C° 0 mm 2 m/s 751 mmHg 64%
    14:00 +21°C° 0 mm 2 m/s 751 mmHg 62%
    15:00 +23°C° 0 mm 2 m/s 751 mmHg 60%
    16:00 +23°C° 0 mm 2 m/s 751 mmHg 58%
    17:00 +20°C° 0 mm 2 m/s 751 mmHg 62%
    18:00 +19°C° 0 mm 2 m/s 751 mmHg 66%
    19:00 +18°C° 0 mm 1 m/s 752 mmHg 70%
    20:00 +16°C° 0 mm 2 m/s 752 mmHg 70%
    21:00 +15°C° 0 mm 2 m/s 753 mmHg 71%
    22:00 +13°C° 0 mm 3 m/s 753 mmHg 72%
    23:00 +12°C° 0 mm 3 m/s 754 mmHg 74%

    Demain, 18 Septembre, Mercredi

    Heure Température Précipitation Vent Pression Humidité
    00:00 +12°C° 0 mm 2 m/s 754 mmHg 77%
    01:00 +12°C° 0 mm 2 m/s 754 mmHg 79%
    02:00 +10°C° 0 mm 2 m/s 754 mmHg 80%
    03:00 +10°C° 0 mm 3 m/s 754 mmHg 80%
    04:00 +9°C° 0 mm 3 m/s 754 mmHg 81%
    05:00 +9°C° 0 mm 3 m/s 754 mmHg 80%
    06:00 +9°C° 0 mm 3 m/s 755 mmHg 79%
    07:00 +9°C° 0 mm 3 m/s 755 mmHg 78%
    08:00 +11°C° 0 mm 3 m/s 755 mmHg 68%
    09:00 +13°C° 0 mm 3 m/s 755 mmHg 58%
    10:00 +14°C° 0 mm 4 m/s 755 mmHg 48%
    11:00 +17°C° 0 mm 4 m/s 755 mmHg 45%
    12:00 +18°C° 0 mm 4 m/s 755 mmHg 41%
    13:00 +19°C° 0 mm 4 m/s 754 mmHg 38%
    14:00 +19°C° 0 mm 4 m/s 754 mmHg 38%
    15:00 +19°C° 0 mm 4 m/s 754 mmHg 38%
    16:00 +19°C° 0 mm 4 m/s 754 mmHg 38%
    17:00 +17°C° 0 mm 4 m/s 754 mmHg 43%
    18:00 +14°C° 0 mm 3 m/s 754 mmHg 48%
    19:00 +13°C° 0 mm 3 m/s 754 mmHg 53%
    20:00 +13°C° 0 mm 2 m/s 755 mmHg 56%
    21:00 +12°C° 0 mm 2 m/s 755 mmHg 59%
    22:00 +10°C° 0 mm 2 m/s 756 mmHg 63%
    23:00 +10°C° 0 mm 2 m/s 756 mmHg 65%

    Après-demain, 19 Septembre, Jeudi

    Heure Température Précipitation Vent Pression Humidité
    00:00 +9°C° 0 mm 2 m/s 756 mmHg 68%
    01:00 +9°C° 0 mm 2 m/s 756 mmHg 70%
    02:00 +8°C° 0 mm 2 m/s 756 mmHg 72%
    03:00 +8°C° 0 mm 2 m/s 756 mmHg 73%
    04:00 +8°C° 0 mm 2 m/s 756 mmHg 75%
    05:00 +8°C° 0 mm 2 m/s 756 mmHg 75%
    06:00 +8°C° 0 mm 2 m/s 756 mmHg 74%
    07:00 +8°C° 0 mm 2 m/s 757 mmHg 74%
    08:00 +10°C° 0 mm 3 m/s 757 mmHg 67%
    09:00 +12°C° 0 mm 4 m/s 757 mmHg 60%
    10:00 +14°C° 0 mm 4 m/s 757 mmHg 52%
    11:00 +15°C° 0 mm 4 m/s 757 mmHg 49%
    12:00 +17°C° 0 mm 4 m/s 757 mmHg 45%
    13:00 +17°C° 0 mm 5 m/s 757 mmHg 41%
    14:00 +17°C° 0 mm 5 m/s 756 mmHg 41%
    15:00 +17°C° 0 mm 5 m/s 756 mmHg 40%
    16:00 +17°C° 0 mm 5 m/s 756 mmHg 40%
    17:00 +17°C° 0 mm 4 m/s 756 mmHg 45%
    18:00 +14°C° 0 mm 4 m/s 756 mmHg 50%
    19:00 +12°C° 0 mm 3 m/s 757 mmHg 55%
    20:00 +11°C° 0 mm 3 m/s 757 mmHg 58%
    21:00 +10°C° 0 mm 2 m/s 757 mmHg 61%
    22:00 +9°C° 0 mm 2 m/s 757 mmHg 65%
    23:00 +9°C° 0 mm 2 m/s 757 mmHg 66%

    20 Septembre, Vendredi

    Heure Température Précipitation Vent Pression Humidité
    00:00 +8°C° 0 mm 2 m/s 757 mmHg 67%
    01:00 +8°C° 0 mm 2 m/s 757 mmHg 69%
    02:00 +8°C° 0 mm 2 m/s 757 mmHg 70%
    03:00 +7°C° 0 mm 2 m/s 757 mmHg 71%
    04:00 +7°C° 0 mm 2 m/s 757 mmHg 72%
    05:00 +7°C° 0 mm 2 m/s 757 mmHg 72%
    06:00 +7°C° 0 mm 2 m/s 757 mmHg 72%
    07:00 +7°C° 0 mm 2 m/s 757 mmHg 72%
    08:00 +9°C° 0 mm 2 m/s 757 mmHg 63%
    09:00 +12°C° 0 mm 3 m/s 757 mmHg 55%
    10:00 +14°C° 0 mm 3 m/s 757 mmHg 46%
    11:00 +17°C° 0 mm 3 m/s 756 mmHg 42%
    12:00 +18°C° 0 mm 3 m/s 756 mmHg 37%
    13:00 +20°C° 0 mm 3 m/s 755 mmHg 33%
    14:00 +20°C° 0 mm 4 m/s 755 mmHg 34%
    15:00 +20°C° 0 mm 4 m/s 755 mmHg 35%
    16:00 +21°C° 0 mm 4 m/s 754 mmHg 36%
    17:00 +19°C° 0 mm 3 m/s 754 mmHg 42%
    18:00 +17°C° 0 mm 3 m/s 754 mmHg 49%
    19:00 +14°C° 0 mm 3 m/s 754 mmHg 56%
    20:00 +13°C° 0 mm 3 m/s 754 mmHg 60%
    21:00 +12°C° 0 mm 2 m/s 754 mmHg 64%
    22:00 +10°C° 0 mm 2 m/s 754 mmHg 68%
    23:00 +10°C° 0 mm 2 m/s 754 mmHg 70%

    21 Septembre, Samedi

    Heure Température Précipitation Vent Pression Humidité
    00:00 +9°C° 0 mm 2 m/s 754 mmHg 72%
    01:00 +9°C° 0 mm 2 m/s 753 mmHg 73%
    02:00 +10°C° 0 mm 1 m/s 753 mmHg 74%
    03:00 +9°C° 0 mm 1 m/s 753 mmHg 75%
    04:00 +9°C° 0 mm 1 m/s 753 mmHg 76%
    05:00 +9°C° 0 mm 1 m/s 752 mmHg 76%
    06:00 +9°C° 0 mm 1 m/s 752 mmHg 76%
    07:00 +9°C° 0 mm 1 m/s 752 mmHg 76%
    08:00 +12°C° 0 mm 1 m/s 752 mmHg 68%
    09:00 +15°C° 0 mm 1 m/s 752 mmHg 60%
    10:00 +18°C° 0 mm 1 m/s 752 mmHg 51%
    11:00 +20°C° 0 mm 1 m/s 751 mmHg 49%
    12:00 +22°C° 0 mm 1 m/s 751 mmHg 46%
    13:00 +24°C° 0 mm 1 m/s 751 mmHg 43%
    14:00 +24°C° 0 mm 1 m/s 750 mmHg 43%
    15:00 +25°C° 0 mm 2 m/s 750 mmHg 44%
    16:00 +25°C° 0 mm 2 m/s 749 mmHg 44%
    17:00 +23°C° 0 mm 1 m/s 749 mmHg 51%
    18:00 +21°C° 0 mm 1 m/s 749 mmHg 57%
    19:00 +19°C° 0 mm 1 m/s 750 mmHg 64%
    20:00 +19°C° 0 mm 1 m/s 750 mmHg 68%
    21:00 +18°C° 0 mm 1 m/s 750 mmHg 72%
    22:00 +18°C° 0 mm 1 m/s 750 mmHg 75%
    23:00 +18°C° 0 mm 1 m/s 750 mmHg 74%

    22 Septembre, Dimanche

    Heure Température Précipitation Vent Pression Humidité
    00:00 +18°C° 0 mm 1 m/s 750 mmHg 72%
    01:00 +19°C° 0 mm 1 m/s 750 mmHg 71%
    02:00 +18°C° 0 mm 1 m/s 750 mmHg 72%
    03:00 +18°C° 0 mm 1 m/s 750 mmHg 73%
    04:00 +18°C° 0 mm 1 m/s 750 mmHg 74%
    05:00 +18°C° 0 mm 1 m/s 750 mmHg 75%
    06:00 +18°C° 0 mm 1 m/s 750 mmHg 76%
    07:00 +18°C° 0 mm 1 m/s 750 mmHg 78%
    08:00 +19°C° 0 mm 1 m/s 750 mmHg 73%
    09:00 +21°C° 0 mm 1 m/s 750 mmHg 67%
    10:00 +23°C° 0 mm 1 m/s 750 mmHg 62%
    11:00 +24°C° 0 mm 1 m/s 750 mmHg 59%
    12:00 +25°C° 0 mm 1 m/s 750 mmHg 56%
    13:00 +26°C° 0 mm 1 m/s 750 mmHg 53%
    14:00 +26°C° 0 mm 1 m/s 750 mmHg 54%
    15:00 +26°C° 0 mm 2 m/s 750 mmHg 56%
    16:00 +26°C° 0 mm 2 m/s 750 mmHg 58%
    17:00 +25°C° 0 mm 2 m/s 750 mmHg 64%
    18:00 +23°C° 0 mm 1 m/s 751 mmHg 70%
    19:00 +22°C° 0 mm 1 m/s 751 mmHg 76%
    20:00 +21°C° 0 mm 1 m/s 751 mmHg 78%
    21:00 +21°C° 0 mm 1 m/s 752 mmHg 80%
    22:00 +20°C° 0 mm 1 m/s 752 mmHg 83%
    23:00 +20°C° 0 mm 1 m/s 752 mmHg 83%
    Voir plus